Flag for Netherlands Weather past 2 weeks in Emmen, Netherlands

Now
65 °F

Overcast.


Feels Like: 65 °F
Forecast: 51 / 72 °F
Wind: 5 mph from Northeast

Location: Meppen


UV Index: 3 (Moderate)

Visibility: 5 mi


Pressure: 30.10 "Hg

Humidity: 70%

Dew point: 55 °F

Location of EmmenLocation

Historic Weather in Emmen

°F

Emmen temperature yesterday

Maximum temperature yesterday: 68 °F (at 3:00 PM)
Minimum temperature yesterday: 40 °F (at 6:00 AM)
Average temperature yesterday: 55 °F

Past Weeks' High & Low Weather Summary

 TemperatureHumidityPressure
High69 °F (Apr 20, 4:00 PM)97% (Apr 23, 9:00 AM)30.47 "Hg (Apr 23, 9:00 AM)
Low28 °F (Apr 16, 7:00 AM)25% (Apr 16, 6:00 PM)29.68 "Hg (Apr 21, 7:00 PM)
Average51 °F72%30.05 "Hg
* Reported Apr 9 2:00 PM — Apr 24 2:00 PM, Emmen, Weather by CustomWeather, © 2014

Note: Actual official high and low records may vary slightly from our data, if they occured in-between our weather recording intervals... More about our weather records

Advertising

Historic Weather Conditions — Data for Previous 24 hours

 ConditionsComfort  
Time TempWeatherWind HumidityBarometerVisibility
2:00 PM
Apr 24
62 °FPartly sunny.3 mph76%30.12 "Hg4 mi
1:00 PM59 °FFog.3 mph82%30.13 "Hg4 mi
12:00 PM58 °FFog.3 mph87%30.15 "Hg2 mi
10:00 AM54 °FFog.3 mph96%30.15 "Hg1 mi
9:00 AM53 °FFog.2 mph96%30.14 "Hg1 mi
8:00 AM52 °FFog.2 mph96%30.14 "Hg0 mi
7:00 AM52 °FFog.2 mph96%30.13 "Hg0 mi
6:00 AM51 °FFog.2 mph96%30.12 "Hg0 mi
4:00 AM47 °FCool.1 mph95%30.13 "Hg0 mi
3:00 AM49 °FCool.2 mph95%30.13 "Hg0 mi
2:00 AM49 °FCool.2 mph95%30.14 "Hg0 mi
1:00 AM51 °FCool.2 mph95%30.14 "Hg1 mi
12:00 AM50 °FCool.N/A94%30.15 "Hg0 mi
10:00 PM
Apr 23
53 °FCool.2 mph88%30.14 "Hg3 mi
9:00 PM55 °FCool.3 mph81%30.13 "Hg4 mi
8:00 PMN/APassing clouds.5 mphN/AN/A2 mi
7:00 PM65 °FMild.2 mph51%30.09 "Hg5 mi
6:00 PM67 °FMild.2 mph37%30.09 "Hg6 mi
5:00 PMN/APassing clouds.22 mphN/AN/A2 mi
4:00 PM67 °FMild.2 mph40%30.10 "Hg5 mi
3:00 PM68 °FMild.3 mph42%30.11 "Hg4 mi
Weather by CustomWeather, © 2014

See weather overview